Total_Precipitation_Accumulation
0.01 0.00 0.01 0.00 0.00 0.01 0.01 0.01 0.03 0.01 0.00 0.00 0.00 0.01 0.02 0.03 0.04 0.04 0.02 0.01 0.01 0.00 0.01 0.05 0.08 0.11 0.12 0.20 0.56 0.70 0.86 0.73 0.54 0.42 0.41 0.38 0.41 0.33 0.38 0.37 0.55 0.72 1.14 1.32
0.04 0.04 0.01 0.00 0.01 0.03 0.05 0.09 0.04 0.01 0.01 0.06 0.04 0.01 0.00 0.01 0.17 0.03 0.01 0.01 0.00 0.00 0.00 0.01 0.02 0.08 0.22 0.43 0.48 0.41 0.33 0.20 0.20 0.17 0.28 0.34 0.37 0.30 0.25 0.32 0.43 1.00 1.07 1.14
0.07 0.03 0.00 0.01 0.02 0.02 0.02 0.02 0.00 0.01 0.05 0.17 0.11 0.03 0.00 0.00 0.02 0.05 0.03 0.03 0.01 0.01 0.04 0.06 0.09 0.12 0.12 0.10 0.06 0.09 0.15 0.10 0.21 0.23 0.23 0.28 0.41 0.48 0.41 0.38 0.41 0.73 0.79 0.89
0.04 0.00 0.01 0.04 0.04 0.04 0.06 0.02 0.01 0.02 0.17 0.20 0.18 0.15 0.02 0.01 0.00 0.08 0.02 0.04 0.04 0.05 0.05 0.03 0.01 0.01 0.01 0.05 0.08 0.12 0.13 0.19 0.21 0.33 0.14 0.26 0.20 0.21 0.22 0.26 0.28 0.51 0.64 0.70
0.06 0.01 0.02 0.03 0.02 0.02 0.02 0.01 0.04 0.09 0.12 0.17 0.12 0.28 0.05 0.07 0.14 0.23 0.18 0.17 0.10 0.08 0.07 0.06 0.03 0.05 0.06 0.05 0.08 0.09 0.13 0.25 0.27 0.26 0.20 0.35 0.30 0.21 0.19 0.26 0.35 0.46 0.62 0.57
0.02 0.02 0.07 0.05 0.01 0.02 0.06 0.06 0.20 0.22 0.17 0.24 0.03 0.18 0.11 0.17 0.45 0.45 0.49 0.26 0.14 0.13 0.18 0.16 0.14 0.14 0.12 0.11 0.23 0.12 0.13 0.13 0.29 0.35 0.39 0.48 0.62 0.46 0.28 0.22 0.24 0.34 0.53 0.48
0.07 0.08 0.02 0.01 0.05 0.03 0.06 0.16 0.37 0.52 0.43 0.16 0.09 0.15 0.17 0.27 0.31 0.61 0.77 0.46 0.19 0.20 0.17 0.16 0.21 0.32 0.29 0.28 0.35 0.18 0.10 0.16 0.23 0.41 0.54 0.59 1.08 1.24 1.14 0.72 0.42 0.51 0.59 0.46
0.16 0.24 0.05 0.01 0.02 0.03 0.06 0.15 0.32 0.70 0.53 0.27 0.19 0.24 0.42 0.38 0.52 0.45 0.31 0.64 0.26 0.25 0.24 0.28 0.61 0.43 0.38 0.50 0.57 0.39 0.22 0.28 0.31 0.46 0.72 0.73 0.79 1.05 1.76 1.90 1.93 1.54 1.07 0.83
0.36 0.43 0.03 0.02 0.03 0.03 0.03 0.08 0.11 0.53 0.52 0.72 0.61 0.68 0.77 0.32 0.58 0.92 0.73 0.45 0.41 0.26 0.31 0.46 0.55 0.32 0.31 1.01 1.23 0.70 0.52 0.36 0.37 0.45 0.61 0.64 0.91 1.26 1.56 2.03 2.31 3.04 2.87 2.13
0.39 0.86 0.07 0.06 0.07 0.04 0.03 0.09 0.43 0.86 1.12 0.81 0.43 0.79 1.28 1.24 1.33 1.43 1.20 0.83 0.67 0.45 0.39 0.45 0.73 0.31 0.32 1.25 1.06 0.69 0.73 0.83 0.69 0.47 0.49 0.60 0.73 0.94 1.35 1.63 2.54 2.77 3.16 3.46
0.25 0.88 0.19 0.04 0.14 0.03 0.02 0.13 0.39 0.62 0.36 0.95 1.04 1.34 1.42 1.87 1.69 1.31 1.48 1.39 0.84 0.69 0.79 0.52 0.66 0.46 0.34 0.66 1.08 1.10 0.89 1.28 1.36 1.21 1.13 0.85 1.09 1.07 1.42 1.56 1.93 2.56 2.40 2.46
0.07 0.31 0.11 0.04 0.03 0.03 0.03 0.05 0.20 0.75 0.74 1.01 1.54 1.89 2.13 1.51 0.85 0.74 0.96 1.41 1.13 0.77 1.13 0.84 0.66 0.62 0.60 0.47 0.60 1.23 1.35 1.70 2.01 2.58 2.54 1.68 1.77 1.76 1.61 1.77 1.78 1.77 1.96 2.21
0.14 0.25 0.28 0.27 0.19 0.37 0.20 0.12 0.20 0.45 0.88 1.50 1.61 2.03 1.94 1.25 0.77 0.65 0.75 0.90 1.04 0.94 0.90 1.07 0.83 0.57 0.72 0.61 1.01 1.09 1.33 1.41 2.36 3.02 3.11 2.12 2.26 2.01 1.97 2.02 1.80 1.37 1.22 1.23
0.10 0.24 0.43 0.60 0.65 0.76 0.62 0.52 0.41 0.89 1.40 1.04 0.87 0.89 0.94 1.34 1.21 0.91 0.65 0.59 0.82 0.94 0.91 0.97 0.91 0.78 0.64 0.65 1.06 1.03 1.09 1.30 1.93 2.02 2.47 2.35 2.17 2.45 1.79 1.50 1.63 1.60 1.16 1.16
0.17 0.56 0.51 0.48 0.62 0.46 0.68 1.14 1.18 0.90 0.75 0.85 0.92 0.61 0.50 0.67 1.13 1.04 0.94 0.75 0.66 0.95 0.68 0.76 0.70 0.78 0.75 0.62 0.67 0.71 0.75 0.93 1.18 1.30 1.38 1.65 2.10 2.16 1.99 2.01 2.00 1.65 1.49 1.51
0.23 0.70 0.84 0.66 0.61 0.37 0.55 0.92 0.65 0.63 0.97 0.87 0.53 0.73 0.55 0.55 0.75 0.90 0.97 0.85 0.53 0.69 0.69 0.89 0.66 0.52 0.61 0.51 0.47 0.51 0.58 0.69 0.70 0.72 0.89 0.81 0.71 0.89 1.22 1.36 1.30 1.01 1.28 1.60
0.25 0.42 0.49 0.40 0.26 0.18 0.54 0.82 0.50 0.30 0.27 0.26 0.19 0.40 0.43 0.52 0.47 0.77 0.87 0.86 0.75 0.71 0.68 0.96 0.90 0.67 0.59 0.66 0.64 0.65 0.65 0.70 0.65 0.66 0.77 0.72 0.63 0.71 0.67 0.87 0.96 1.02 0.97 1.26
0.29 0.26 0.43 0.32 0.33 0.66 0.67 0.28 0.15 0.04 0.06 0.07 0.06 0.14 0.20 0.34 0.47 0.78 0.87 0.88 0.93 0.85 0.87 1.14 1.20 0.91 0.71 0.72 0.63 0.62 0.64 0.67 0.88 0.86 0.89 0.94 0.83 0.75 0.74 0.82 0.83 1.22 1.61 1.37
0.20 0.35 0.63 0.61 0.37 0.45 0.26 0.09 0.05 0.09 0.12 0.08 0.08 0.12 0.17 0.18 0.27 0.69 0.91 0.62 0.80 0.70 0.51 0.39 0.59 0.85 0.82 0.70 0.64 0.59 0.60 0.55 0.55 0.84 0.94 0.96 1.05 1.15 1.10 1.09 1.27 1.31 1.23 1.07
0.35 0.39 0.66 0.75 0.53 0.42 0.20 0.06 0.03 0.04 0.18 0.08 0.05 0.05 0.07 0.14 0.34 0.34 0.47 0.47 0.60 0.34 0.16 0.07 0.05 0.12 0.30 0.49 0.62 0.57 0.58 0.61 0.54 0.62 0.84 0.97 1.06 1.32 1.54 1.67 1.51 1.24 1.16 1.22
0.31 0.51 0.66 0.69 0.59 0.19 0.05 0.09 0.09 0.26 0.38 0.10 0.08 0.05 0.06 0.10 0.23 0.35 0.28 0.52 0.68 0.13 0.02 0.01 0.01 0.01 0.02 0.05 0.17 0.31 0.38 0.52 0.64 0.55 0.61 0.84 1.10 1.13 1.23 1.27 1.32 1.37 1.34 1.23
0.22 0.37 0.40 0.55 0.65 0.35 0.12 0.27 0.38 0.37 0.19 0.09 0.11 0.09 0.10 0.17 0.33 0.42 0.49 0.52 0.31 0.10 0.01 0.00 0.00 0.00 0.00 0.00 0.01 0.08 0.16 0.16 0.23 0.36 0.42 0.44 0.47 0.65 0.74 0.85 0.98 0.99 1.02 1.09
0.54 0.28 0.30 0.27 0.33 0.37 0.33 0.44 0.36 0.19 0.23 0.23 0.16 0.12 0.17 0.42 0.66 0.74 0.71 0.57 0.31 0.09 0.01 0.00 0.00 0.00 0.00 0.01 0.02 0.07 0.10 0.09 0.09 0.11 0.16 0.22 0.22 0.25 0.39 0.54 0.61 0.67 0.75 0.78
0.67 0.69 0.79 0.90 0.76 0.42 0.51 0.48 0.27 0.27 0.32 0.26 0.16 0.18 0.26 0.33 0.40 0.42 0.40 0.37 0.23 0.07 0.02 0.02 0.02 0.02 0.05 0.06 0.06 0.09 0.08 0.08 0.09 0.09 0.08 0.08 0.10 0.15 0.15 0.19 0.26 0.34 0.44 0.51
0.44 0.63 0.74 1.21 0.90 0.65 0.59 1.06 0.59 0.30 0.21 0.14 0.07 0.05 0.06 0.06 0.05 0.06 0.07 0.07 0.06 0.05 0.04 0.04 0.06 0.08 0.06 0.05 0.08 0.12 0.13 0.11 0.11 0.10 0.10 0.10 0.10 0.11 0.09 0.15 0.26 0.29 0.50 0.57
0.17 0.43 0.87 1.09 1.21 1.08 0.99 0.90 0.79 0.56 0.37 0.19 0.10 0.07 0.06 0.03 0.03 0.05 0.09 0.10 0.06 0.04 0.05 0.06 0.06 0.07 0.09 0.09 0.12 0.13 0.12 0.12 0.13 0.15 0.16 0.23 0.20 0.19 0.18 0.19 0.27 0.39 0.50 0.55